Temp
59 51 46 51 53 55 53 49 48 53 58 53 53 52 59 64 60 60 64 66 64 66 71 72 74 73 72 69 68 66 66 67 66 67 69 68 68 69 69 70 70 70 72 75
52 46 56 62 59 56 54 49 46 52 58 55 53 54 59 60 59 61 62 64 66 68 65 70 71 69 68 71 68 66 66 66 67 64 68 69 68 67 68 68 71 69 70 72
47 56 63 61 55 55 50 48 47 48 55 54 52 48 54 62 61 64 64 65 67 67 66 69 69 68 68 67 66 66 67 67 66 67 68 68 68 68 67 66 65 68 70 71
52 61 61 56 55 56 45 56 55 52 46 39 50 37 50 53 55 57 60 61 59 64 69 65 66 65 64 68 67 67 66 66 67 66 64 66 66 64 66 68 68 69 71 71
53 55 55 53 55 59 51 58 51 51 45 40 44 34 42 51 51 53 57 60 62 64 66 63 65 66 66 66 66 66 66 65 66 64 64 63 63 65 65 66 67 67 70 72
57 62 59 56 60 59 59 51 48 43 38 28 39 37 38 43 47 52 54 58 60 64 66 68 63 67 65 65 64 64 64 65 65 64 65 64 63 63 65 64 65 66 68 69
52 55 60 62 53 55 52 40 27 27 26 27 42 39 40 47 50 53 52 56 60 61 64 62 60 62 65 63 65 68 65 63 62 63 64 64 64 65 65 66 64 65 66 68
38 38 55 59 52 46 44 41 28 25 25 34 43 33 40 52 54 55 55 55 58 60 61 62 60 60 61 63 63 64 64 64 64 66 66 66 65 65 65 66 65 64 67 69
40 42 56 60 58 53 45 38 45 33 34 28 35 42 48 51 51 54 55 55 53 59 57 61 62 60 60 61 61 61 62 63 64 65 64 66 66 65 65 65 64 64 65 67
47 36 53 57 58 55 48 49 32 31 26 23 32 35 35 42 45 51 52 52 52 59 60 60 61 60 60 60 60 61 61 62 63 64 63 65 66 66 65 65 64 66 66 64
47 40 44 49 45 42 42 37 37 35 34 26 27 30 43 43 46 47 50 53 54 55 57 59 60 58 57 59 60 60 60 61 62 64 63 62 63 64 64 64 64 64 64 62
49 41 34 43 51 55 48 41 37 28 27 33 31 31 53 47 53 49 52 55 58 57 60 62 58 58 60 59 59 59 59 61 62 65 64 60 61 63 63 63 63 62 60 59
47 34 32 36 40 46 42 44 42 38 32 31 26 31 52 53 55 50 50 53 56 58 59 60 57 58 60 60 59 59 59 60 62 64 63 59 61 61 61 62 63 61 61 59
51 33 37 32 39 41 37 42 42 36 25 33 33 37 45 47 46 48 50 51 53 54 56 56 54 53 55 56 57 57 57 58 60 62 59 59 60 62 62 60 58 57 58 57
42 32 36 39 43 43 41 41 41 37 39 32 38 39 39 42 47 44 50 51 52 53 56 54 54 53 53 55 55 56 55 56 57 60 59 58 61 60 59 58 58 57 57 56
40 34 36 35 43 43 39 44 44 44 43 44 42 39 46 48 48 49 49 48 48 51 54 55 55 55 57 56 54 55 53 54 56 57 57 57 59 59 57 57 56 56 55 54
34 28 29 30 40 36 31 39 43 43 44 44 35 39 45 44 46 45 45 46 48 50 52 53 53 52 52 52 53 50 51 53 54 56 59 59 57 53 52 52 52 52 50 50
32 28 34 30 34 23 42 50 49 43 45 46 44 43 43 43 44 44 45 46 47 48 47 48 47 48 48 49 49 50 51 52 53 55 58 54 52 50 50 49 49 49 49 48
41 38 32 28 24 34 42 45 43 39 39 48 40 42 43 43 43 44 48 47 44 44 45 45 46 48 48 49 50 50 49 50 51 55 53 52 51 50 49 47 47 47 46 46
41 37 30 31 28 24 39 46 52 49 32 43 44 40 41 42 35 41 45 49 48 49 49 48 49 47 47 47 48 48 48 48 51 53 51 52 51 50 48 47 46 46 45 44
32 32 29 26 30 34 45 49 52 26 31 42 44 42 43 39 43 46 47 46 47 46 47 49 49 48 50 50 47 47 47 47 54 52 51 50 50 47 46 46 46 44 44 44
29 31 30 28 26 25 47 47 35 41 43 44 45 43 42 43 43 43 44 43 44 45 46 48 46 47 50 50 47 46 46 53 51 50 49 47 46 46 45 44 44 44 44 42
27 36 32 35 32 44 46 43 48 46 42 45 43 44 43 41 41 42 42 43 45 45 46 47 46 47 49 51 49 45 48 51 49 47 46 44 44 44 44 44 43 43 43 42
38 41 32 35 39 43 47 49 45 47 46 45 44 43 43 40 41 42 44 43 43 45 45 47 47 46 47 50 48 50 51 50 48 45 43 43 42 42 43 43 42 42 42 40
38 38 36 38 44 46 48 47 46 46 46 44 45 43 42 42 42 43 42 42 43 44 46 48 47 46 47 48 49 52 50 49 46 44 43 42 43 42 41 41 42 41 42 45
35 34 34 35 42 42 42 46 47 41 42 43 42 42 44 44 42 42 41 42 43 45 46 46 46 46 48 50 50 49 49 48 45 42 42 42 42 42 42 40 38 40 41 41
MSLP
1012.10 1012.96 1013.34 1013.48 1013.53 1013.47 1013.27 1013.05 1012.69 1012.40 1011.88 1011.24 1010.74 1010.04 1008.78 1008.31 1007.72 1007.12 1006.60 1005.94 1005.14 1004.52 1003.76 1003.41 1003.28 1002.85 1002.96 1003.34 1003.84 1004.24 1004.61 1004.97 1005.46 1005.97 1006.09 1006.52 1006.53 1006.56 1006.65 1006.78 1006.81 1007.45 1007.45 1006.83
1013.01 1012.98 1012.84 1012.85 1012.74 1012.73 1012.68 1012.78 1012.58 1012.01 1011.67 1011.46 1010.54 1009.67 1008.49 1008.10 1007.46 1006.73 1006.20 1005.67 1004.89 1004.02 1003.55 1003.01 1002.44 1002.56 1002.80 1002.85 1003.22 1003.80 1004.17 1004.49 1004.88 1005.30 1005.40 1005.78 1005.92 1006.15 1006.28 1006.19 1006.76 1007.03 1006.73 1007.08
1013.30 1012.80 1012.47 1012.40 1012.46 1012.41 1012.42 1012.68 1012.63 1012.29 1011.20 1011.51 1010.54 1009.52 1008.80 1007.58 1007.11 1006.52 1006.34 1005.35 1004.20 1003.97 1003.28 1002.37 1002.17 1001.72 1001.91 1002.48 1002.80 1003.25 1003.49 1003.88 1004.24 1004.67 1005.20 1005.58 1005.77 1006.02 1006.29 1006.36 1006.47 1006.71 1006.63 1006.73
1012.75 1012.10 1012.14 1012.13 1012.23 1012.11 1012.12 1012.25 1012.44 1012.55 1012.72 1012.16 1011.66 1009.76 1009.61 1008.34 1007.64 1007.18 1006.97 1006.40 1005.78 1004.55 1002.52 1002.10 1001.97 1001.84 1001.82 1001.91 1002.03 1002.44 1002.98 1003.46 1003.77 1004.22 1005.03 1005.27 1005.55 1005.99 1005.72 1005.61 1005.52 1005.91 1006.18 1006.32
1012.50 1012.16 1011.90 1011.93 1011.79 1011.65 1012.20 1012.32 1012.82 1012.98 1013.15 1012.82 1012.21 1012.18 1009.57 1009.17 1008.75 1008.04 1007.80 1007.35 1006.50 1004.99 1004.17 1003.80 1002.06 1001.34 1001.17 1001.68 1001.92 1002.24 1002.79 1003.30 1003.48 1003.97 1004.29 1004.81 1005.29 1005.30 1005.40 1005.51 1005.53 1005.49 1005.33 1005.95
1011.96 1011.62 1011.52 1011.61 1011.71 1012.11 1012.28 1012.71 1013.09 1013.66 1014.16 1014.24 1013.43 1013.17 1010.93 1010.50 1010.00 1009.17 1008.79 1007.64 1007.31 1006.03 1005.30 1005.10 1003.21 1002.11 1001.93 1002.15 1002.79 1002.66 1002.84 1003.13 1003.44 1003.83 1004.05 1004.42 1004.61 1005.09 1005.64 1005.72 1005.58 1005.42 1005.48 1005.70
1012.41 1011.79 1011.47 1011.82 1011.96 1012.30 1012.99 1014.45 1015.29 1015.56 1015.54 1015.18 1013.87 1013.17 1011.36 1010.71 1010.35 1009.83 1009.45 1008.11 1008.04 1007.91 1007.08 1006.79 1004.11 1003.75 1003.34 1003.29 1003.29 1003.42 1003.84 1004.17 1004.28 1004.35 1004.17 1004.13 1004.44 1004.94 1005.29 1005.33 1005.45 1005.41 1005.36 1005.47
1013.10 1012.44 1012.22 1012.51 1013.08 1013.53 1014.09 1015.27 1016.95 1016.96 1016.53 1014.97 1014.30 1012.95 1011.16 1010.65 1010.43 1010.16 1009.67 1009.09 1008.35 1008.98 1008.70 1007.15 1006.14 1005.40 1004.63 1004.30 1004.35 1004.31 1004.23 1004.25 1004.03 1003.97 1004.23 1004.29 1004.53 1004.72 1004.77 1004.96 1005.13 1005.16 1004.93 1004.83
1013.85 1013.38 1012.81 1012.67 1013.05 1013.96 1014.41 1015.43 1015.99 1016.86 1016.62 1016.07 1014.31 1012.61 1011.53 1010.84 1010.53 1009.82 1009.61 1009.80 1009.12 1009.88 1008.80 1007.81 1006.86 1006.22 1005.89 1005.27 1005.16 1004.93 1004.78 1004.69 1004.39 1003.99 1003.84 1003.94 1004.06 1004.30 1004.42 1004.66 1004.93 1004.83 1004.64 1004.53
1014.41 1013.96 1013.32 1013.16 1013.47 1013.85 1014.29 1015.49 1016.30 1017.14 1017.29 1016.40 1014.47 1013.17 1011.82 1011.13 1010.65 1010.42 1010.03 1009.99 1009.84 1009.26 1008.57 1007.56 1007.23 1006.82 1006.37 1005.99 1005.48 1005.18 1005.21 1005.10 1004.97 1004.75 1004.61 1004.42 1004.08 1003.82 1004.06 1004.40 1004.78 1004.74 1004.88 1004.76
1014.42 1014.95 1014.18 1013.95 1013.93 1014.04 1014.63 1015.57 1016.56 1017.58 1017.66 1016.96 1015.49 1013.26 1011.84 1011.43 1010.77 1010.25 1010.27 1009.78 1009.34 1009.32 1008.67 1007.46 1007.18 1006.89 1006.61 1006.20 1006.00 1005.66 1005.60 1005.55 1005.26 1005.10 1004.87 1004.58 1004.27 1003.93 1003.93 1004.26 1004.35 1004.82 1005.18 1005.33
1014.80 1014.97 1014.69 1014.21 1013.91 1013.40 1014.47 1015.48 1016.55 1017.79 1017.76 1017.16 1016.40 1013.22 1011.52 1011.23 1010.50 1010.21 1009.94 1009.32 1008.79 1008.47 1008.09 1007.78 1007.33 1007.30 1006.40 1006.21 1006.42 1006.32 1006.04 1005.93 1005.66 1005.49 1005.26 1004.98 1004.26 1004.00 1003.99 1004.14 1004.51 1005.16 1005.60 1006.13
1015.64 1016.02 1015.73 1014.42 1014.41 1014.18 1014.46 1015.22 1015.86 1016.62 1016.90 1016.24 1015.88 1012.92 1011.49 1011.21 1010.55 1010.26 1009.89 1009.45 1008.99 1008.32 1007.74 1007.58 1007.25 1007.32 1006.97 1006.56 1006.41 1006.36 1006.35 1006.36 1006.18 1005.88 1005.44 1005.04 1004.62 1004.53 1004.46 1004.66 1004.86 1005.47 1005.84 1006.82
1015.88 1016.42 1016.52 1015.79 1014.95 1014.88 1014.50 1014.69 1015.47 1016.09 1016.44 1015.00 1014.32 1012.07 1011.93 1011.53 1010.97 1010.44 1010.00 1009.54 1009.17 1008.82 1008.54 1007.90 1007.44 1007.39 1007.37 1007.22 1007.22 1007.23 1007.14 1007.17 1006.91 1006.46 1006.11 1005.85 1005.26 1005.15 1004.99 1005.42 1005.76 1006.19 1006.51 1007.10
1016.56 1016.82 1016.59 1015.90 1015.20 1014.67 1014.16 1013.69 1014.25 1014.64 1014.23 1014.27 1012.29 1012.38 1012.09 1011.51 1011.29 1010.97 1010.29 1010.09 1009.73 1009.13 1008.59 1008.18 1008.04 1007.85 1007.56 1007.34 1007.47 1007.59 1007.56 1007.38 1007.16 1006.95 1006.78 1006.55 1006.02 1005.85 1005.87 1006.12 1006.62 1007.09 1007.41 1007.77
1017.16 1016.77 1016.42 1015.67 1015.06 1014.49 1013.64 1013.09 1012.62 1012.60 1012.28 1012.34 1012.49 1011.92 1011.53 1011.70 1011.35 1011.08 1010.74 1010.55 1010.22 1009.76 1009.27 1008.72 1008.27 1008.00 1007.81 1007.62 1007.69 1007.75 1007.82 1007.70 1007.47 1007.13 1007.03 1006.96 1006.63 1006.87 1006.92 1007.15 1007.55 1007.93 1008.49 1008.80
1017.35 1017.22 1017.25 1015.64 1014.99 1014.76 1013.63 1011.08 1011.24 1011.30 1011.24 1011.75 1012.03 1011.64 1011.66 1011.61 1011.50 1011.35 1011.15 1010.83 1010.33 1009.74 1009.31 1008.91 1008.48 1008.08 1007.80 1007.80 1007.74 1007.94 1007.91 1007.84 1007.64 1007.36 1007.35 1007.13 1007.24 1007.82 1008.18 1008.34 1008.71 1009.21 1009.29 1009.92
1016.54 1017.44 1017.34 1016.35 1015.58 1014.26 1011.47 1010.79 1010.76 1011.02 1010.92 1011.21 1011.30 1011.50 1011.66 1011.51 1011.20 1010.97 1010.65 1010.25 1009.81 1009.70 1009.65 1009.47 1009.21 1008.89 1008.66 1008.32 1008.08 1007.97 1007.86 1007.89 1007.86 1007.60 1007.66 1007.76 1007.94 1008.46 1009.03 1009.26 1009.53 1010.55 1010.46 1010.71
1016.14 1017.23 1017.42 1017.09 1015.87 1013.51 1011.47 1011.05 1011.27 1011.20 1010.74 1010.81 1011.29 1011.62 1011.39 1011.24 1010.96 1010.29 1009.89 1009.66 1009.70 1009.60 1009.48 1009.32 1009.13 1008.97 1008.60 1008.34 1008.07 1008.03 1008.06 1007.97 1008.02 1007.85 1008.20 1008.45 1008.64 1009.24 1009.61 1010.21 1010.69 1011.47 1011.54 1011.99
1016.28 1016.66 1017.37 1016.91 1015.76 1013.66 1011.77 1011.47 1011.09 1011.26 1010.89 1011.05 1011.39 1011.52 1011.42 1011.20 1010.26 1009.43 1009.66 1009.62 1009.35 1008.89 1008.72 1008.51 1008.34 1008.31 1008.22 1007.98 1007.83 1007.90 1008.16 1008.18 1008.02 1007.78 1008.46 1009.03 1009.17 1009.65 1010.41 1010.88 1011.78 1012.32 1012.71 1013.35
1016.90 1016.75 1016.95 1016.38 1015.24 1013.30 1011.49 1011.30 1010.54 1011.30 1011.56 1011.01 1011.21 1011.26 1010.99 1010.77 1010.36 1008.71 1009.11 1008.84 1008.51 1007.99 1007.62 1007.47 1007.33 1007.30 1007.42 1007.66 1007.67 1007.75 1007.91 1007.96 1008.07 1008.45 1008.95 1009.61 1010.06 1010.59 1011.17 1011.87 1012.71 1013.16 1013.74 1014.83
1017.69 1017.25 1016.65 1015.96 1014.63 1012.61 1011.25 1010.97 1011.87 1011.37 1011.04 1011.18 1010.98 1010.75 1010.50 1010.02 1009.45 1009.01 1008.28 1007.67 1007.23 1006.61 1006.12 1006.02 1006.05 1006.12 1006.39 1006.73 1007.18 1007.46 1007.60 1007.73 1008.22 1008.75 1009.40 1010.35 1010.92 1011.54 1012.23 1012.65 1013.85 1014.29 1014.74 1015.48
1017.54 1016.79 1017.01 1016.16 1013.59 1011.92 1011.53 1011.74 1011.47 1011.37 1011.36 1010.88 1010.75 1010.43 1010.12 1009.57 1008.78 1008.25 1007.39 1006.44 1005.56 1005.01 1004.63 1004.44 1004.53 1004.87 1005.30 1005.82 1006.36 1006.86 1007.15 1007.68 1008.46 1009.19 1010.19 1011.01 1011.93 1012.80 1013.50 1013.79 1014.65 1015.09 1015.73 1016.30
1016.92 1016.24 1015.92 1015.37 1012.75 1012.24 1011.67 1011.08 1011.27 1011.16 1010.92 1010.63 1010.42 1010.02 1009.52 1008.73 1008.12 1007.15 1006.20 1005.47 1004.42 1003.55 1002.81 1002.52 1002.85 1003.57 1004.41 1005.14 1005.85 1006.20 1006.83 1007.82 1008.66 1009.65 1010.89 1011.88 1012.60 1013.76 1014.59 1015.23 1015.84 1015.86 1016.44 1016.86
1016.88 1016.12 1014.59 1013.66 1012.51 1011.80 1011.11 1011.24 1011.23 1010.86 1010.75 1010.40 1009.97 1009.45 1008.74 1008.15 1007.23 1006.57 1005.66 1004.67 1003.48 1002.10 1000.56 999.41 1000.84 1002.54 1003.89 1004.84 1005.60 1006.00 1006.94 1008.00 1009.22 1010.26 1011.58 1012.65 1013.65 1014.47 1015.41 1016.38 1016.97 1017.15 1017.75 1017.64
1015.42 1014.76 1014.32 1013.21 1012.59 1012.01 1011.39 1011.27 1010.98 1010.84 1010.43 1009.95 1009.28 1008.45 1008.09 1007.61 1006.95 1006.33 1005.20 1004.28 1002.96 1001.72 1000.92 1000.57 1001.43 1002.75 1003.85 1004.79 1005.53 1006.37 1007.43 1008.26 1009.69 1011.05 1012.33 1013.44 1014.35 1015.41 1016.38 1017.06 1017.85 1018.08 1017.95 1018.26
Wind_Speed
6 4 4 7 6 8 5 5 10 5 5 7 11 10 21 15 9 11 14 15 12 13 14 12 13 11 10 7 8 9 9 9 4 2 3 2 4 2 3 5 5 4 4 6
9 4 3 6 5 6 6 7 7 7 7 9 12 18 20 11 10 9 11 13 16 15 9 13 13 11 9 11 11 9 9 9 7 3 3 3 3 2 2 2 6 6 8 8
2 11 7 8 7 9 5 5 6 9 13 3 13 8 14 18 9 9 9 13 6 10 15 16 11 11 10 10 10 11 11 10 7 7 3 1 2 1 2 2 3 8 9 16
4 5 8 11 7 8 5 6 6 9 8 11 6 14 12 6 11 5 13 14 12 17 17 9 7 6 8 12 9 10 9 9 8 9 5 6 5 4 4 4 4 6 7 7
11 7 11 6 6 4 5 6 2 5 9 6 7 2 7 8 7 10 13 17 19 18 12 12 6 5 7 6 8 9 9 9 9 8 8 5 4 5 2 2 4 5 8 8
8 4 3 1 3 5 5 6 7 5 2 3 3 1 5 4 8 6 11 13 20 18 21 21 8 12 7 6 6 1 7 9 8 7 8 10 10 4 2 2 3 3 4 7
4 3 2 5 5 7 11 9 7 7 5 6 5 5 9 5 6 6 8 16 16 18 14 17 11 10 12 10 8 7 5 6 6 6 5 4 5 5 6 5 4 4 4 6
1 8 2 4 3 4 4 6 5 7 5 16 0 7 6 3 2 5 11 12 17 16 11 13 10 8 9 10 10 8 7 7 3 5 1 2 6 5 4 3 3 4 6 8
5 4 5 11 4 4 4 3 6 5 3 5 5 7 3 3 3 4 6 10 12 15 11 11 10 9 8 9 9 8 9 7 5 3 4 4 4 6 5 4 3 4 3 4
4 9 8 2 3 5 5 0 5 5 5 6 5 5 7 2 5 6 8 7 9 18 15 9 8 8 7 7 6 8 8 8 7 6 4 3 4 5 2 3 3 4 3 10
3 5 6 2 5 6 4 2 1 2 3 5 5 7 3 5 5 3 7 6 4 13 16 8 7 7 5 5 7 7 8 8 9 10 7 6 6 4 2 5 5 4 4 8
4 4 8 13 9 13 5 6 5 5 7 4 4 12 11 7 4 2 6 9 11 8 14 12 4 7 6 7 7 8 7 9 8 9 10 6 4 4 5 6 7 7 9 9
3 4 10 9 7 4 3 4 2 3 0 12 6 10 7 12 20 8 12 9 8 8 7 7 6 6 4 4 6 7 10 11 12 12 12 6 7 6 7 8 9 6 9 7
6 4 11 15 17 5 10 11 7 5 4 13 12 23 16 10 8 11 8 7 7 6 8 7 7 3 5 5 6 7 8 7 10 12 9 7 6 7 9 10 11 11 11 13
2 6 6 7 11 13 14 20 13 15 17 12 22 18 3 6 8 4 9 11 10 10 9 5 5 4 2 4 5 5 6 8 9 10 10 4 5 6 10 12 13 13 14 14
1 11 5 7 12 13 16 18 19 18 17 14 14 14 8 4 4 8 8 9 11 12 13 11 5 4 1 1 2 4 6 7 7 10 9 2 7 7 9 11 13 14 14 15
4 3 1 8 3 7 9 15 8 4 5 2 6 7 2 4 6 5 7 9 14 14 12 10 12 6 5 3 3 5 5 5 7 9 3 7 10 11 10 11 12 12 16 16
4 4 3 4 3 4 5 3 3 1 8 6 6 4 6 8 7 8 9 13 15 10 4 5 4 4 4 3 4 3 5 5 5 6 2 8 12 13 12 13 15 13 14 17
7 3 2 2 3 8 9 4 1 4 14 11 4 5 7 7 9 12 10 8 6 7 7 7 6 6 6 4 2 3 5 5 5 1 6 9 12 13 14 14 14 13 15 16
5 3 5 2 4 5 1 6 11 8 10 5 2 7 10 10 14 12 4 10 15 17 16 15 13 8 7 6 5 1 3 5 7 10 10 10 12 15 14 15 14 14 15 14
5 5 4 3 5 8 1 12 8 6 6 4 4 10 14 14 14 20 15 18 18 17 17 16 15 13 11 7 4 3 2 6 5 11 12 12 12 13 14 15 14 15 16 15
4 4 2 3 5 6 5 17 2 5 4 6 11 11 15 17 18 18 19 18 18 19 18 16 14 13 12 11 8 7 6 4 12 14 15 14 13 11 11 16 13 14 15 14
4 3 4 5 7 12 10 6 8 3 8 10 10 13 12 18 19 18 18 20 17 17 16 13 13 14 12 11 11 8 7 14 14 16 16 15 15 13 12 15 13 12 12 10
6 3 5 8 5 9 13 15 4 8 12 10 10 14 16 18 18 21 16 16 17 17 16 13 13 14 13 11 9 9 15 16 17 17 16 15 16 15 12 9 8 10 10 8
9 4 6 9 13 14 11 8 9 13 9 13 16 17 16 16 18 13 16 17 17 18 15 13 15 14 13 11 10 13 17 18 17 17 16 15 14 15 13 11 9 9 2 2
4 7 1 8 16 11 10 11 12 7 15 17 17 17 16 16 12 14 15 15 15 9 5 10 14 14 13 12 14 18 18 20 19 18 14 12 13 12 12 12 6 11 9 13
Wind_Direction
316 51 290 265 224 232 263 300 311 325 298 333 300 299 301 304 283 282 279 273 265 257 245 240 247 228 219 221 193 202 173 212 148 167 145 216 223 192 207 211 193 284 266 222
10 294 238 292 315 321 331 320 301 265 320 315 300 300 294 296 270 273 277 286 276 270 282 253 230 228 211 212 201 194 197 179 189 169 169 168 174 185 186 201 231 185 249 245
280 266 297 330 328 314 290 244 283 282 315 263 293 281 293 307 283 288 339 328 304 280 283 254 236 226 215 207 190 186 193 189 181 172 146 192 77 77 177 178 197 220 234 254
258 265 316 301 290 284 286 234 272 321 354 308 5 299 320 303 318 13 343 357 330 317 358 283 264 280 207 213 189 178 182 177 189 177 170 186 188 212 225 192 198 208 211 210
250 265 284 291 260 294 257 308 305 280 288 310 304 280 283 331 331 334 2 357 347 341 350 304 18 359 204 174 179 176 176 183 196 183 188 175 201 220 209 185 230 219 213 204
257 265 225 193 5 1 293 357 351 358 54 10 261 110 270 352 296 2 13 24 11 335 326 326 14 27 19 54 12 292 178 201 198 188 199 195 208 221 216 240 243 237 195 171
295 257 347 39 9 353 23 34 331 342 358 232 307 321 260 305 334 61 21 19 5 8 12 314 32 30 42 41 69 77 61 318 343 324 301 232 205 215 229 225 221 247 202 188
313 330 32 13 54 270 272 145 158 277 292 295 152 254 267 212 238 58 34 24 7 349 335 335 346 17 34 43 32 35 46 54 163 132 64 195 234 233 234 219 234 238 222 200
321 275 333 330 21 74 287 235 224 257 243 307 246 279 293 328 3 45 62 11 10 311 319 347 358 9 11 38 35 27 20 2 23 94 57 11 260 236 233 247 193 250 234 144
249 292 227 205 46 306 227 327 342 325 289 267 272 273 241 319 346 7 20 3 319 314 311 335 3 6 5 11 18 32 26 24 357 360 5 333 313 262 227 152 135 166 163 130
223 172 260 341 187 226 304 320 329 163 224 249 283 263 248 244 224 45 289 253 214 292 294 308 333 333 342 357 10 23 22 16 17 4 350 359 339 330 142 124 141 118 127 139
253 234 271 269 235 253 193 185 141 130 279 248 258 265 252 216 244 221 269 254 251 233 264 281 288 299 343 6 11 4 12 15 11 3 354 334 353 80 116 115 128 123 113 108
323 290 309 305 344 14 175 192 196 220 95 252 249 268 350 307 307 277 282 293 274 267 275 301 262 273 285 32 27 14 20 18 9 360 354 346 46 57 82 97 110 105 100 91
315 218 218 262 266 251 271 264 260 205 211 273 245 279 285 299 294 304 294 281 279 286 279 303 331 348 357 29 33 17 16 14 7 4 8 349 61 85 100 93 92 94 101 104
73 254 231 246 277 276 270 277 268 250 248 243 279 282 285 292 309 320 9 359 342 334 326 339 349 350 15 38 19 25 23 17 3 5 353 355 83 74 101 103 102 103 103 100
279 271 267 254 270 264 273 275 279 274 269 265 289 281 208 294 326 345 338 336 320 312 318 320 306 338 159 356 57 34 28 16 0 359 341 103 95 81 82 96 106 107 97 101
215 184 74 278 347 333 270 250 227 240 251 205 256 235 163 265 274 279 272 274 281 283 282 296 303 269 195 190 65 56 29 18 359 352 320 139 95 91 87 93 91 98 106 99
181 119 174 274 316 232 251 125 103 238 275 251 251 226 240 252 256 261 259 278 280 288 296 305 319 324 332 348 33 21 43 24 347 339 289 109 109 108 102 99 99 99 102 101
137 148 263 283 239 279 281 92 342 297 297 281 230 263 258 267 300 286 259 254 241 257 257 263 265 259 236 237 295 3 25 357 328 262 104 118 116 109 110 104 101 106 99 95
71 83 141 226 252 272 177 28 336 266 276 89 252 276 291 312 294 300 232 295 291 282 282 278 273 258 262 242 188 61 23 321 305 139 120 116 117 117 115 110 105 104 96 94
313 289 234 246 257 273 230 352 303 91 260 288 288 292 292 285 280 300 301 286 276 271 267 260 258 255 240 236 207 222 220 261 133 121 114 113 113 112 111 110 111 110 108 111
274 290 307 306 251 286 360 349 352 262 313 300 294 296 289 286 293 291 292 285 278 270 263 253 243 236 231 214 199 212 214 187 135 123 116 113 109 110 112 109 112 112 112 109
295 142 266 241 246 291 329 257 298 259 282 302 294 294 290 292 292 296 289 285 283 280 272 254 236 224 215 204 194 179 191 136 129 120 117 111 105 102 104 110 109 105 101 105
275 282 235 327 290 295 302 302 254 311 309 293 291 298 298 294 297 293 295 300 292 286 277 257 220 196 190 186 165 184 138 130 124 116 115 112 108 104 97 89 91 95 100 97
256 315 253 256 279 303 284 330 322 304 302 309 305 298 294 292 293 307 302 303 300 300 290 240 176 164 167 150 166 141 132 128 120 115 111 108 107 106 102 93 101 99 143 111
197 219 245 292 305 287 309 315 302 308 317 306 301 301 301 303 307 310 306 308 311 336 33 89 120 132 142 156 139 125 130 123 120 113 109 115 111 107 107 112 102 34 82 80